Regional Weather Roundup
Issued by NWS

Home | Current Version | Previous Version | Text Only | Print | Product List | Glossary Off
Versions: 1 2 3 4 5 6 7 8 9 10 11 12 13 14 15 16 17 18 19 20 21 22 23 24 25 26 27 28 29 30 31 32 33 34 35 36 37 38 39 40 41 42 43 44 45 46 47 48 49 50

900
ASUS44 KLIX 240301
RWRLA
LOUISIANA WEATHER ROUNDUP
NATIONAL WEATHER SERVICE NEW ORLEANS LA
1000 PM CDT WED APR 23 2014

NOTE: "FAIR" INDICATES FEW OR NO CLOUDS BELOW 12,000 FEET WITH NO
      SIGNIFICANT WEATHER AND/OR OBSTRUCTIONS TO VISIBILITY.
      SKY/WX - SKY CONDITION AND SIGNIFICANT WEATHER.
      TMP - AIR TEMPERATURE.    DP   - DEWPOINT TEMPERATURE.
      RH  - RELATIVE HUMIDITY.  PRES - PRESSURE.
      HX  - HEAT INDEX.         WCI  - WIND CHILL INDEX.

*  THESE STATIONS ARE NOT NWS OR FAA STATIONS AND ARE NOT UNDER
   NWS QUALITY CONTROL.

LAZ040-048-061>063-065-066-069-240400-
SOUTHEAST LOUISIANA

CITY           SKY/WX    TMP DP  RH WIND       PRES   REMARKS
N.O. AUDUBON     N/A     69  66  88 MISG        N/A
N.O. INTL ARPT PTCLDY    71  65  81 SW9       29.93R
N.O. LAKEFRONT CLEAR     73  65  75 SW10      29.93R
N.O. DOWNTOWN* FAIR      75  63  64 S5        29.94R
SLIDELL        CLEAR     65  59  81 CALM      29.92R
BATON ROUGE    PTCLDY    72  61  68 S8        29.92R
BOOTHVILLE     CLEAR     72  65  78 SW7       29.94R
BELLE CHASSE   PTCLDY    68  62  81 CALM      29.93R
BOGALUSA*        N/A     67  61  80 CALM      29.93R
GALLIANO*      CLEAR     69  64  83 S3        29.94R
NEW ROADS*     NOT AVBL
GONZALES*      FAIR      70  64  81 S3        29.92R
HAMMOND*       NOT AVBL
HOUMA*           N/A     67  61  81 CALM      29.94R
PORT FOURCHON* CLEAR     72  66  83 SW6       29.96R

$$

LAZ041-044-053-054-240400-
SOUTHWEST LOUISIANA

CITY           SKY/WX    TMP DP  RH WIND       PRES   REMARKS
LAKE CHARLES   CLEAR     68  64  87 S3        29.91R
LAFAYETTE      CLEAR     70  64  81 S5        29.91R
PATTERSON      CLEAR     66  64  94 S5        29.96S
SALT POINT       N/A     72  67  84 CALM      29.92R
NEW IBERIA     CLEAR     68  64  87 S3        29.92R
CHENAULT AIRPK CLEAR     66  63  88 CALM      29.91R

$$

LAZ027-028-240400-
CENTRAL LOUISIANA

CITY           SKY/WX    TMP DP  RH WIND       PRES   REMARKS
FORT POLK      CLEAR     70  62  76 S6        29.90R
ALEXANDRIA INT PTCLDY    67  55  65 CALM      29.88R
ALEXANDRIA     CLEAR     63  56  78 CALM      29.89S

$$

LAZ001-002-240400-
NORTHWEST LOUISIANA

CITY           SKY/WX    TMP DP  RH WIND       PRES   REMARKS
SHREVEPORT     PTCLDY    72  57  59 SE9       29.85S
BARKSDALE AFB  NOT AVBL
DTN SHREVEPORT CLEAR     71  55  56 SE7       29.86R

$$

LAZ014-016-240400-
NORTHEAST LOUISIANA

CITY           SKY/WX    TMP DP  RH WIND       PRES   REMARKS
MONROE         CLEAR     63  51  65 E5        29.91R
TALLULAH       CLEAR     62  56  80 CALM      29.91S

$$




USA.gov is the U.S. government's official web portal to all federal, state and local government web resources and services.